KD9LKD-13 Weather Reports


time (UTC)temp
C
wind
direction
speed
KPH
gust
KPH
rain 1hr
cm
rain 24hr
cm
rain mn
cm
humidity
%
barometer
mb
20260509021514 10 215 0.0 0.0 0.00 0.00 0.00 53 1007.6
20260509020016 10 215 0.0 1.6 0.00 0.00 0.00 49 1007.5
20260509014524 11 215 0.0 3.2 0.00 0.00 0.00 53 1007.4
20260509013037 11 215 0.0 1.6 0.00 0.00 0.00 52 1007.3
20260509011507 12 215 0.0 1.6 0.00 0.00 0.00 52 1007.1
20260509010018 12 215 0.0 1.6 0.00 0.00 0.00 48 1006.8
20260509004518 13 215 0.0 1.6 0.00 0.00 0.00 46 1006.6
20260509003024 15 222 0.0 4.8 0.00 0.00 0.00 45 1006.5
20260509001526 15 237 0.0 3.2 0.00 0.00 0.00 44 1006.4
20260509000009 16 235 1.6 12.9 0.00 0.00 0.00 39 1006.4
20260508234517 16 227 3.2 16.1 0.00 0.00 0.00 38 1006.4
20260508233022 16 216 4.8 16.1 0.00 0.00 0.00 38 1006.3
20260508230047 17 246 3.2 14.5 0.00 0.00 0.00 36 1006.3
20260508224538 18 251 1.6 11.3 0.00 0.00 0.00 35 1006.3
20260508223027 18 227 6.4 17.7 0.00 0.00 0.00 35 1006.4
20260508221524 17 275 3.2 11.3 0.00 0.00 0.00 39 1006.6
20260508214527 17 275 6.4 12.9 0.00 0.00 0.00 37 1006.7
20260508213027 17 262 4.8 11.3 0.00 0.00 0.00 38 1006.8
20260508211525 17 248 4.8 19.3 0.00 0.00 0.00 36 1006.9
20260508210026 18 224 6.4 14.5 0.00 0.00 0.00 35 1006.9
20260508204526 17 240 4.8 20.9 0.00 0.00 0.00 34 1007.2
20260508203027 18 217 1.6 11.3 0.00 0.00 0.00 36 1007.2
20260508201520 17 227 4.8 22.5 0.00 0.00 0.00 37 1007.5
20260508194503 18 250 3.2 17.7 0.00 0.00 0.00 37 1008.0
20260508181507 17 158 3.2 9.7 0.00 0.00 0.00 38 1009.1
20260508180006 16 343 3.2 14.5 0.00 0.00 0.00 39 1009.3
20260508171507 15 271 3.2 14.5 0.00 0.00 0.00 37 1010.0
20260508170005 16 271 3.2 14.5 0.00 0.00 0.00 41 1010.2
20260508164504 15 182 3.2 14.5 0.00 0.00 0.00 42 1010.5
20260508161503 15 261 3.2 12.9 0.00 0.00 0.00 45 1010.7
20260508160006 14 155 1.6 11.3 0.00 0.00 0.00 48 1010.9
20260508154506 13 313 1.6 14.5 0.00 0.00 0.00 48 1011.0
20260508153006 13 227 1.6 14.5 0.00 0.00 0.00 48 1011.2
20260508150009 12 140 1.6 11.3 0.00 0.00 0.00 51 1011.5
20260508144505 12 19 1.6 8.0 0.00 0.00 0.00 53 1011.5
20260508143006 12 97 3.2 11.3 0.00 0.00 0.00 53 1011.6
20260508141511 11 333 4.8 8.0 0.00 0.00 0.00 56 1011.8
20260508134509 11 27 0.0 4.8 0.00 0.00 0.00 63 1011.9
20260508133010 10 51 1.6 4.8 0.00 0.00 0.00 67 1011.9
20260508131508 10 59 0.0 8.0 0.00 0.00 0.00 72 1011.9
20260508130009 9 88 1.6 4.8 0.00 0.00 0.00 74 1011.9
20260508124519 9 138 0.0 4.8 0.00 0.00 0.00 75 1011.9
20260508123013 8 286 0.0 3.2 0.00 0.00 0.00 79 1011.7
20260508121513 8 192 1.6 3.2 0.00 0.00 0.00 85 1011.6
20260508120010 6 216 0.0 0.0 0.00 0.00 0.00 91 1011.5
20260508114510 5 216 0.0 0.0 0.00 0.00 0.00 93 1011.3
20260508111511 2 216 0.0 0.0 0.00 0.00 0.00 92 1010.9
20260508103014 1 216 0.0 0.0 0.00 0.00 0.00 90 1010.7
20260508101516 1 216 0.0 0.0 0.00 0.00 0.00 89 1010.7
20260508100004 2 216 0.0 0.0 0.00 0.00 0.00 89 1010.6
20260508094505 2 216 0.0 0.0 0.00 0.00 0.00 89 1010.7
20260508093010 2 216 0.0 0.0 0.00 0.00 0.00 87 1010.7
20260508090019 3 216 0.0 0.0 0.00 0.00 0.00 87 1010.8
20260508083011 4 216 0.0 1.6 0.00 0.00 0.00 86 1010.8
20260508074521 5 216 0.0 0.0 0.00 0.00 0.00 84 1011.0
20260508070016 5 244 0.0 1.6 0.00 0.00 0.00 82 1011.3
20260508064527 6 244 0.0 3.2 0.00 0.00 0.00 82 1011.2
20260508063026 6 236 0.0 3.2 0.00 0.00 0.00 81 1011.2
20260508061508 6 220 0.0 4.8 0.00 0.00 0.00 81 1011.2
20260508060012 5 221 0.0 3.2 0.00 0.00 0.00 81 1011.3
20260508054519 5 220 0.0 1.6 0.00 0.00 0.00 80 1011.4
20260508053031 5 220 0.0 1.6 0.00 0.00 0.00 79 1011.4
20260508051522 5 217 0.0 0.0 0.00 0.00 0.00 79 1011.4
20260508050012 5 217 0.0 1.6 0.00 0.00 0.00 76 1011.3
20260508044512 6 198 0.0 1.6 0.00 0.00 0.00 75 1011.3
20260508043018 6 198 0.0 1.6 0.00 0.00 0.00 73 1011.3
20260508041521 6 198 0.0 1.6 0.00 0.00 0.00 70 1011.3
20260508040025 7 198 0.0 1.6 0.00 0.00 0.00 68 1011.3
20260508034528 8 198 0.0 3.2 0.00 0.00 0.00 66 1011.2
20260508033023 8 216 0.0 6.4 0.00 0.00 0.00 65 1011.2
20260508031523 8 215 1.6 4.8 0.00 0.00 0.00 65 1011.4
20260508030022 8 200 0.0 0.0 0.00 0.00 0.00 64 1011.5
20260508024525 8 198 0.0 3.2 0.00 0.00 0.00 62 1011.5
20260508023031 8 219 0.0 4.8 0.00 0.00 0.00 61 1011.5